Погода в Кубани

Россия / Липецкая область     52°24′30″N   40°07′13″E
темп.,
°C
ветер,
м/с
пор.,
м/с
влажн.,
%
обл.,
%
осадки,
мм/ч
давл.,
гПа
погр.,
м
19 января, вт
вт1900:00−18всв019897 0.2 101920
03:00−20с229989 0.3 101820
06:00−21з1110076 0.0 101820
09:00−22ссз119980 0.1 101920
12:00−19зсз119470 0.0 1019124
15:00−18сз129581 0.0 101763
18:00−22сз229791 0.0 101920
21:00−22зсз239790 0.0 101921
20 января, ср
ср2000:00−22зсз2397100 0.0 102049
03:00−21з339897 0.1 102048
06:00−19з349799 0.1 1020132
09:00−18з369699 0.1 1022212
12:00−16з359493 0.1 1022252
15:00−15з359593 0.1 1023211
18:00−19з349654 0.0 102557
21:00−20з349627 0.0 102546
21 января, чт
чт2100:00−20зюз34940 0.0 102641
03:00−20зюз34930 0.0 102754
06:00−20юз349523 0.0 102658
09:00−20ююз499526 0.0 1026162
12:00−15ююз6109198 0.0 1024307
15:00−11ююз8158899 0.0 1021460
18:00−8юз81594100 0.8 1018627
21:00−5юз81594100 1.6 1017701
22 января, пт
пт2200:00−2зюз81596100 1.3 1015742
03:000зюз71491100 1.4 1016672
06:00+1зюз71391100 0.0 1015605
09:00+1зюз61291100 0.0 1016503
12:00+1зюз51098100 0.0 1016469
15:00+1юз51096100 0.0 1016499
18:00+1юз51094100 0.0 1015465
21:00+1юз51195100 0.0 1015442
23 января, сб
сб2300:00+1юз51296100 0.0 1015463
03:00+1юз61296100 0.0 1015510
06:00+1юз51196100 0.0 1015489
09:00+1юз61198100 0.0 1015515
12:00+1ююз512100100 0.0 1015393
15:00+1ююз51199100 0.0 1015333
18:00+1ююз51099100 0.0 1015268
21:00+1ю51099100 0.0 1015265